Weather reports worldwide

Advertisment
Aultbea, United Kingdom (3034): temperature & dewpoint: 09.07.2018 20:00:00 - 15.07.2018 20:00:00 (BST)Aultbea, United Kingdom (3034): temperature -20cm & temperature -100cm: 09.07.2018 20:00:00 - 15.07.2018 20:00:00 (BST)Aultbea, United Kingdom (3034): wind speed & gusts: 09.07.2018 20:00:00 - 15.07.2018 20:00:00 (BST)Aultbea, United Kingdom (3034): wind direction: 09.07.2018 20:00:00 - 15.07.2018 20:00:00 (BST)Aultbea, United Kingdom (3034): reduced air pressure: 09.07.2018 20:00:00 - 15.07.2018 20:00:00 (BST)Aultbea, United Kingdom (3034): visibility: 09.07.2018 20:00:00 - 15.07.2018 20:00:00 (BST)Aultbea, United Kingdom (3034): precipitation: 09.07.2018 20:00:00 - 15.07.2018 20:00:00 (BST)
Date & Time tt [°C] td [°C] tt -20cm [°C] tt -100cm [°C] ff [km/h] ff [kn] fx [km/h] fx [kn] dd ppp [hPa] vv [km] rr [mm]
15.07.2018 20:00:00 - - - - - - - - - - - 0,0
15.07.2018 19:00:00 16,7 15,3 - - 13 7 - - SSE 1009,6 50 0,0
15.07.2018 18:00:00 17,1 15,6 - - 16 9 - - S 1009,7 45 0,0
15.07.2018 17:00:00 17,0 15,3 - - 15 8 - - SSW 1010,0 40 0,0
15.07.2018 16:00:00 17,5 15,5 - - 18 10 - - SSW 1010,5 50 0,0
15.07.2018 15:00:00 17,4 15,8 - - 21 11 - - S 1010,6 45 0,0
15.07.2018 14:00:00 17,1 15,9 - - 13 7 - - S 1010,6 45 0,2
15.07.2018 13:00:00 17,1 15,5 - - 16 9 - - S 1010,5 8 0,0
15.07.2018 12:00:00 17,2 15,7 - - 22 12 - - S 1010,7 8 0,0
15.07.2018 11:00:00 17,5 15,4 - - 26 14 - - S 1010,4 40 0,0
15.07.2018 10:00:00 17,6 15,8 17,5 15,7 22 12 - - S 1010,4 40 0,0
15.07.2018 09:00:00 17,2 16,0 - - 16 9 - - S 1010,3 40 0,4
15.07.2018 08:00:00 16,3 15,5 - - 18 10 - - S 1010,5 21 0,2
15.07.2018 07:00:00 16,5 15,5 - - 21 11 - - S 1010,3 30 0,4
15.07.2018 06:00:00 16,2 15,4 - - 16 9 - - S 1010,1 23 1,6
15.07.2018 05:00:00 16,4 15,3 - - 22 12 - - S 1010,3 8 0,2
15.07.2018 04:00:00 16,6 15,4 - - 22 12 - - S 1010,4 50 0,0
15.07.2018 03:00:00 16,8 15,2 - - 21 11 - - SSW 1010,6 50 0,0
15.07.2018 02:00:00 16,9 15,0 - - 31 17 - - S 1010,7 45 0,0
15.07.2018 01:00:00 17,0 15,0 - - 29 16 - - S 1011,0 45 0,0
15.07.2018 00:00:00 17,3 15,2 - - 31 17 - - S 1011,2 45 0,0
14.07.2018 23:00:00 17,1 15,3 - - 22 12 - - S 1011,4 50 0,0
14.07.2018 22:00:00 17,5 15,0 - - 31 17 48 26 S 1011,5 35 0,0
14.07.2018 21:00:00 17,4 14,7 - - 31 17 50 27 S 1011,6 50 0,0
14.07.2018 20:00:00 17,4 14,3 - - 34 18 - - S 1011,9 40 0,0
14.07.2018 19:00:00 17,7 14,6 - - 31 17 50 27 S 1011,9 35 0,0
14.07.2018 18:00:00 17,3 14,5 - - 35 19 46 25 S 1012,4 30 0,0
14.07.2018 17:00:00 17,4 14,2 - - 35 19 52 28 S 1012,7 45 0,0
14.07.2018 16:00:00 17,3 14,1 - - 35 19 54 29 S 1012,9 27 0,0
14.07.2018 15:00:00 17,1 13,7 - - 35 19 52 28 S 1013,1 45 0,0
14.07.2018 14:00:00 16,8 13,5 - - 35 19 59 32 S 1013,3 6 0,0
14.07.2018 13:00:00 17,1 12,4 - - 41 22 55 30 S 1013,3 35 0,0
14.07.2018 12:00:00 16,6 12,3 - - 34 18 54 29 S 1013,6 30 0,0
14.07.2018 11:00:00 16,7 12,3 - - 37 20 52 28 S 1013,8 35 0,0
14.07.2018 10:00:00 16,8 12,2 17,7 15,7 35 19 54 29 S 1014,0 35 0,0
14.07.2018 09:00:00 16,6 12,1 - - 39 21 54 29 S 1014,3 45 0,0
14.07.2018 08:00:00 16,4 11,9 - - 39 21 57 31 S 1014,3 35 0,0
14.07.2018 07:00:00 16,3 11,6 - - 34 18 48 26 S 1014,4 50 0,0
14.07.2018 06:00:00 15,7 11,2 - - 28 15 - - S 1015,0 50 0,0
14.07.2018 05:00:00 15,6 11,1 - - 26 14 - - S 1015,5 50 0,0
14.07.2018 04:00:00 15,5 11,1 - - 28 15 - - S 1016,1 45 0,0
14.07.2018 03:00:00 14,9 11,1 - - 26 14 - - S 1017,0 45 0,0
14.07.2018 02:00:00 15,0 11,1 - - 21 11 - - S 1017,0 50 0,0
14.07.2018 01:00:00 14,3 11,9 - - 16 9 - - S 1017,8 45 0,0
14.07.2018 00:00:00 14,9 12,2 - - 18 10 - - S 1018,2 50 0,0
13.07.2018 23:00:00 15,1 12,4 - - 21 11 - - S 1018,6 40 0,0
13.07.2018 22:00:00 15,6 12,2 - - 22 12 - - S 1018,9 45 0,0
13.07.2018 21:00:00 16,2 12,1 - - 22 12 - - SSW 1019,0 45 0,0
13.07.2018 20:00:00 16,7 12,0 - - 13 7 - - SSW 1019,4 35 0,0
13.07.2018 19:00:00 17,1 11,8 - - 16 9 - - SSW 1019,3 50 0,0
13.07.2018 18:00:00 17,5 11,7 - - 26 14 - - SW 1019,6 40 0,0
13.07.2018 17:00:00 18,2 11,7 - - 24 13 - - SW 1020,1 35 0,0
13.07.2018 16:00:00 18,6 11,2 - - 21 11 - - SSW 1020,3 45 0,0
13.07.2018 15:00:00 18,1 11,4 - - 15 8 - - SW 1020,8 45 0,0
13.07.2018 14:00:00 17,5 11,3 - - 21 11 - - SW 1021,0 35 0,0
13.07.2018 13:00:00 18,1 10,8 - - 16 9 - - SW 1021,2 50 0,0
13.07.2018 12:00:00 17,8 11,2 - - 15 8 - - SSW 1021,4 40 0,0
13.07.2018 11:00:00 18,1 11,3 - - 11 6 - - SSW 1021,6 35 0,0
13.07.2018 10:00:00 17,3 9,9 17,7 15,7 13 7 - - SSW 1021,7 40 0,0
13.07.2018 09:00:00 15,1 11,7 - - 16 9 - - SSW 1021,9 40 0,0
13.07.2018 08:00:00 15,2 11,2 - - 4 2 - - SSW 1022,0 40 0,0
13.07.2018 07:00:00 13,3 11,9 - - 4 2 - - E 1022,0 40 0,0
13.07.2018 06:00:00 12,6 12,5 - - 2 1 - - ESE 1022,2 16 0,0
13.07.2018 05:00:00 11,4 11,2 - - 2 1 - - E 1022,4 7 0,0
13.07.2018 04:00:00 12,6 12,4 - - 0 0 - - N 1022,8 8 0,0
13.07.2018 03:00:00 12,6 12,6 - - 4 2 - - NW 1023,0 11 0,0
13.07.2018 02:00:00 11,7 11,4 - - 2 1 - - NNW 1023,1 8 0,0
13.07.2018 01:00:00 12,5 11,6 - - 4 2 - - NW 1023,5 13 0,0
13.07.2018 00:00:00 13,4 12,2 - - 2 1 - - WSW 1023,6 21 0,0
12.07.2018 23:00:00 14,0 12,1 - - 5 3 - - NNW 1024,0 30 0,0
12.07.2018 22:00:00 14,6 10,8 - - 8 4 - - NNE 1023,8 35 0,0
12.07.2018 21:00:00 14,8 11,8 - - 13 7 - - N 1023,8 35 0,0
12.07.2018 20:00:00 15,6 10,2 - - 8 4 - - N 1023,7 50 0,0
12.07.2018 19:00:00 16,0 10,4 - - 11 6 - - N 1023,6 50 0,0
12.07.2018 18:00:00 16,4 11,5 - - 13 7 - - N 1023,7 50 0,0
12.07.2018 17:00:00 17,0 12,0 - - 11 6 - - N 1023,8 50 0,0
12.07.2018 16:00:00 17,1 9,7 - - 9 5 - - NNW 1024,1 50 0,0
12.07.2018 15:00:00 17,6 10,3 - - 11 6 - - N 1024,2 28 0,0
12.07.2018 14:00:00 16,8 10,4 - - 11 6 - - NNW 1024,3 45 0,0
12.07.2018 13:00:00 15,9 11,3 - - 11 6 - - NNW 1024,5 35 0,0
12.07.2018 12:00:00 15,6 12,1 - - 11 6 - - NW 1024,7 50 0,0
12.07.2018 11:00:00 15,8 10,4 - - 9 5 - - NNE 1024,6 40 0,0
12.07.2018 10:00:00 15,2 9,9 17,2 15,7 5 3 - - NE 1024,7 45 0,0
12.07.2018 09:00:00 15,0 9,8 - - 11 6 - - ENE 1024,7 30 0,0
12.07.2018 08:00:00 14,1 9,8 - - 9 5 - - NNE 1024,8 45 0,0
12.07.2018 07:00:00 13,8 10,3 - - 8 4 - - NNE 1024,5 40 0,0
12.07.2018 06:00:00 13,1 11,3 - - 4 2 - - N 1024,5 45 0,0
12.07.2018 05:00:00 12,9 11,4 - - 8 4 - - N 1024,6 30 0,0
12.07.2018 04:00:00 12,8 11,4 - - 9 5 - - NE 1024,7 30 0,0
12.07.2018 03:00:00 13,0 11,6 - - 13 7 - - NNE 1024,9 27 0,0
12.07.2018 02:00:00 13,0 11,7 - - 13 7 - - NNE 1025,0 28 0,0
12.07.2018 01:00:00 13,1 11,6 - - 11 6 - - NNE 1025,3 30 0,0
12.07.2018 00:00:00 13,2 11,9 - - 13 7 - - NNE 1025,4 24 0,0
11.07.2018 23:00:00 13,2 11,9 - - 13 7 - - NNE 1025,4 20 0,0
11.07.2018 22:00:00 13,3 12,0 - - 13 7 - - N 1025,4 26 0,0
11.07.2018 21:00:00 13,7 12,1 - - 11 6 - - NNE 1025,3 28 0,0
11.07.2018 20:00:00 14,0 12,0 - - 13 7 - - N 1025,4 35 0,0
11.07.2018 19:00:00 14,2 12,0 - - 16 9 - - N 1025,4 45 0,0
11.07.2018 18:00:00 14,6 12,3 - - 16 9 - - N 1025,4 24 0,0
11.07.2018 17:00:00 14,2 12,4 - - 15 8 - - N 1025,5 22 0,0
11.07.2018 16:00:00 15,0 12,9 - - 13 7 - - N 1025,5 35 0,0
11.07.2018 15:00:00 15,0 12,9 - - 15 8 - - NNE 1025,5 50 0,0
11.07.2018 14:00:00 14,3 12,9 - - 15 8 - - NNE 1025,7 11 0,0
11.07.2018 13:00:00 14,0 12,9 - - 15 8 - - NNE 1025,8 30 0,0
11.07.2018 12:00:00 13,5 12,8 - - 15 8 - - N 1025,7 11 0,2
11.07.2018 11:00:00 13,3 12,8 - - 13 7 - - N 1025,8 5 0,4
11.07.2018 10:00:00 13,3 12,8 17,0 15,7 13 7 - - N 1025,8 6 0,2
11.07.2018 09:00:00 13,2 12,6 - - 15 8 - - N 1025,7 7 0,4
11.07.2018 08:00:00 13,0 12,6 - - 8 4 - - N 1025,7 4,9 0,2
11.07.2018 07:00:00 12,7 12,5 - - 5 3 - - N 1025,5 3,6 0,4
11.07.2018 06:00:00 12,7 12,4 - - 5 3 - - NNW 1025,4 9 0,0
11.07.2018 05:00:00 12,5 12,2 - - 5 3 - - N 1025,5 30 0,2
11.07.2018 04:00:00 12,6 12,4 - - 5 3 - - NNW 1025,7 2,7 0,2
11.07.2018 03:00:00 12,7 12,4 - - 5 3 - - N 1025,7 30 0,8
11.07.2018 02:00:00 12,8 12,5 - - 4 2 - - N 1025,9 7 1,4
11.07.2018 01:00:00 12,9 12,6 - - 8 4 - - N 1026,0 22 0,4
11.07.2018 00:00:00 13,0 12,7 - - 5 3 - - N 1026,3 20 0,6
10.07.2018 23:00:00 13,1 12,8 - - 4 2 - - NNW 1026,6 7 0,8
10.07.2018 22:00:00 13,2 13,0 - - 4 2 - - NNW 1026,5 8 1,0
10.07.2018 21:00:00 13,2 13,0 - - 4 2 - - WNW 1026,5 10 0,6
10.07.2018 20:00:00 13,4 13,0 - - 4 2 - - NNW 1026,5 19 1,4
10.07.2018 19:00:00 13,4 13,0 - - 4 2 - - NNW 1026,5 5 3,4
10.07.2018 18:00:00 13,6 13,1 - - 8 4 - - N 1026,4 7 4,0
10.07.2018 17:00:00 14,0 13,4 - - 4 2 - - N 1026,6 6 1,6
10.07.2018 16:00:00 14,0 13,5 - - 5 3 - - WNW - - 1,6
10.07.2018 15:00:00 14,1 13,5 - - 8 4 - - WNW - - 1,0
10.07.2018 14:00:00 14,0 13,5 - - 9 5 - - WNW - - 0,6
10.07.2018 13:00:00 14,4 14,1 - - 9 5 - - WNW - - 1,8
10.07.2018 12:00:00 13,8 13,5 - - 5 3 - - WNW - - 1,4
10.07.2018 11:00:00 13,7 13,5 - - 5 3 - - WNW - - 1,2
10.07.2018 10:00:00 13,7 13,3 17,7 15,7 4 2 - - W - - 1,0
10.07.2018 09:00:00 13,7 12,9 - - 2 1 - - NE 1027,7 13 0,4
10.07.2018 08:00:00 13,5 12,9 - - 2 1 - - N 1027,7 4,4 0,6
10.07.2018 07:00:00 13,3 12,5 - - 4 2 - - SSE 1027,7 21 0,0
10.07.2018 06:00:00 13,0 12,5 - - 4 2 - - SE 1027,8 18 0,0
10.07.2018 05:00:00 12,7 12,3 - - 5 3 - - SSE 1027,9 7 0,4
10.07.2018 04:00:00 13,0 12,1 - - 5 3 - - S 1028,4 4,1 0,0
10.07.2018 03:00:00 13,5 11,7 - - 5 3 - - SW 1028,4 25 0,0
10.07.2018 02:00:00 13,6 11,7 - - 8 4 - - SW 1028,7 27 0,0
10.07.2018 01:00:00 13,7 11,3 - - 8 4 - - SW 1029,1 29 0,0
10.07.2018 00:00:00 13,6 11,4 - - 8 4 - - WSW 1029,4 27 0,0
09.07.2018 23:00:00 13,8 11,0 - - 9 5 - - WSW 1029,5 30 0,0
09.07.2018 22:00:00 13,9 11,1 - - 5 3 - - WSW 1029,4 35 0,0
09.07.2018 21:00:00 14,3 11,0 - - 9 5 - - WSW 1029,4 35 0,0
09.07.2018 20:00:00 14,6 11,2 - - 9 5 - - W 1029,5 30 0,0

tt = temperature
td = dewpoint
tt -20cm = temperature -20cm
tt -100cm = temperature -100cm
ff = wind speed
fx = gusts
dd = wind direction
ppp = reduced air pressure
vv = visibility
rr = precipitation

Next stations